This is the latest recevied weather packets stored in our database for station/object KQ4OSL. If no packets are shown the sender has not sent any weather packets the latest 10 day(s).
| Time | Temp. | Humidity | Pressure | Rain* | Wind** | Luminosity | Snow |
|---|---|---|---|---|---|---|---|
| 1777955383 | 12.22° C | 82% | 1016.4 hPa | 0 mm | - | 0 W/m² | - |
| 1777955079 | 12.22° C | 81% | 1016.4 hPa | 0 mm | - | 0 W/m² | - |
| 1777954777 | 12.78° C | 81% | 1016.5 hPa | 0 mm | - | 0 W/m² | - |
| 1777954473 | 12.78° C | 79% | 1016.4 hPa | 0 mm | - | 0 W/m² | - |
| 1777954171 | 12.78° C | 78% | 1016.6 hPa | 0 mm | - | 0 W/m² | - |
| 1777953868 | 13.33° C | 77% | 1016.5 hPa | 0 mm | - | 0 W/m² | - |
| 1777953565 | 13.33° C | 76% | 1016.4 hPa | 0 mm | - | 0 W/m² | - |
| 1777953261 | 13.89° C | 74% | 1016.6 hPa | 0 mm | - | 0 W/m² | - |
| 1777952958 | 13.89° C | 73% | 1016.6 hPa | 0 mm | - | 0 W/m² | - |
| 1777952655 | 13.89° C | 73% | 1016.5 hPa | 0 mm | - | 0 W/m² | - |
| 1777952352 | 13.89° C | 74% | 1016.5 hPa | 0 mm | - | 0 W/m² | - |
| 1777952049 | 13.33° C | 74% | 1016.6 hPa | 0 mm | - | 0 W/m² | - |
| 1777951747 | 13.33° C | 76% | 1016.5 hPa | 0 mm | - | 0 W/m² | - |
| 1777951443 | 13.33° C | 76% | 1016.6 hPa | 0 mm | - | 0 W/m² | - |
| 1777951140 | 13.89° C | 76% | 1016.8 hPa | 0 mm | - | 0 W/m² | - |
| 1777950837 | 13.33° C | 79% | 1016.6 hPa | 0 mm | - | 0 W/m² | - |
| 1777950534 | 12.78° C | 80% | 1016.9 hPa | 0 mm | - | 0 W/m² | - |
| 1777950230 | 12.78° C | 84% | 1016.8 hPa | 0 mm | - | 0 W/m² | - |
| 1777949925 | 13.33° C | 81% | 1016.9 hPa | 0 mm | - | 0 W/m² | - |
| 1777949623 | 13.33° C | 80% | 1016.8 hPa | 0 mm | - | 0 W/m² | - |
| 1777949322 | 13.33° C | 80% | 1016.8 hPa | 0 mm | - | 0 W/m² | - |
| 1777949019 | 13.33° C | 80% | 1016.9 hPa | 0 mm | - | 0 W/m² | - |
| 1777948716 | 13.33° C | 80% | 1016.8 hPa | 0 mm | - | 0 W/m² | - |
| 1777948413 | 13.89° C | 79% | 1016.9 hPa | 0 mm | - | 0 W/m² | - |
| 1777948110 | 13.89° C | 79% | 1017 hPa | 0 mm | - | 0 W/m² | - |
* Rain latest hour (hover to see other rain measurements)
** Current wind speed in m/s (hover to see current wind gust speed)